W9KOZ-7 Weather Reports


Display with metric or nautical units.
time (UTC)temp
F
wind
direction
speed
MPH
gust
MPH
rain 1hr
in
rain 24hr
in
rain mn
in
humidity
%
barometer
mb
20260505121603 35 141 4.0 10.0 0.00 0.00 0.00 82 1014.4
20260505120603 36 154 4.0 10.0 0.00 0.00 0.00 82 1014.3
20260505115602 36 145 4.0 10.0 0.00 0.00 0.00 82 1014.1
20260505114603 36 133 3.0 8.0 0.00 0.00 0.00 82 1014.1
20260505113605 36 197 4.0 8.0 0.00 0.00 0.00 82 1014.1
20260505112604 36 147 4.0 9.0 0.00 0.00 0.00 83 1014.1
20260505111603 36 156 4.0 9.0 0.00 0.00 0.00 84 1014.1
20260505110603 36 147 3.0 6.0 0.00 0.00 0.00 85 1014.4
20260505101604 38 174 3.0 7.0 0.00 0.00 0.00 88 1014.5
20260505100604 37 126 3.0 6.0 0.00 0.00 0.00 89 1014.8
20260505095604 38 125 4.0 8.0 0.00 0.00 0.00 89 1014.8
20260505094603 38 165 3.0 9.0 0.00 0.00 0.00 87 1014.5
20260505094040 38 139 2.0 6.0 0.00 0.00 0.00 88 1014.9
20260505093505 38 147 1.0 5.0 0.00 0.00 0.00 88 1014.8
20260505091601 38 142 1.0 4.0 0.00 0.00 0.00 88 1014.8
20260505091035 38 222 0.0 0.0 0.00 0.00 0.00 89 1014.9
20260505085600 38 222 0.0 0.0 0.00 0.00 0.00 89 1014.9
20260505084600 38 223 1.0 2.0 0.00 0.00 0.00 89 1014.8
20260505083601 38 243 1.0 4.0 0.00 0.00 0.00 89 1014.9
20260505082601 38 197 0.0 2.0 0.00 0.00 0.00 87 1015.0
20260505081559 38 252 0.0 0.0 0.00 0.00 0.00 88 1015.2
20260505080609 38 251 0.0 0.0 0.00 0.00 0.00 88 1015.2
20260505080106 38 251 0.0 0.0 0.00 0.00 0.00 88 1015.3
20260505074604 38 250 0.0 0.0 0.00 0.00 0.00 88 1015.4
20260505074047 38 251 0.0 0.0 0.00 0.00 0.00 88 1015.6
20260505072602 38 251 0.0 0.0 0.00 0.00 0.00 88 1015.6
20260505071600 38 251 0.0 0.0 0.00 0.00 0.00 88 1015.7
20260505070556 38 251 0.0 0.0 0.00 0.00 0.00 87 1015.6
20260505065555 38 251 0.0 1.0 0.00 0.00 0.00 86 1015.4
20260505064554 38 251 0.0 1.0 0.00 0.00 0.00 86 1015.6
20260505063552 39 251 0.0 0.0 0.00 0.00 0.00 86 1015.4
20260505062552 39 251 0.0 2.0 0.00 0.00 0.00 86 1015.8
20260505061552 39 251 1.0 3.0 0.00 0.00 0.00 86 1015.7
20260505060550 39 272 1.0 4.0 0.00 0.00 0.00 84 1016.1
20260505055549 39 284 1.0 4.0 0.00 0.00 0.00 82 1016.1
20260505054549 40 316 2.0 6.0 0.00 0.00 0.00 80 1016.1
20260505053549 40 259 2.0 6.0 0.00 0.00 0.00 78 1016.1
20260505052549 40 262 1.0 4.0 0.00 0.00 0.00 76 1016.1
20260505051547 40 274 0.0 0.0 0.00 0.00 0.00 76 1015.8
20260505050548 40 272 0.0 0.0 0.00 0.00 0.00 76 1015.7
20260505041038 41 209 0.0 1.0 0.00 0.00 0.00 74 1015.6
20260505035540 41 209 1.0 3.0 0.00 0.00 0.00 73 1015.6
20260505034540 41 197 2.0 5.0 0.00 0.00 0.00 73 1015.2
20260505033544 41 162 2.0 6.0 0.00 0.00 0.00 72 1015.2
20260505032540 41 154 1.0 3.0 0.00 0.00 0.00 72 1014.9
20260505031540 41 149 1.0 2.0 0.00 0.00 0.00 71 1014.6
20260505030540 42 130 1.0 4.0 0.00 0.00 0.00 71 1014.8
20260505025543 42 112 2.0 5.0 0.00 0.00 0.00 70 1014.5
20260505024541 42 227 2.0 5.0 0.00 0.00 0.00 69 1014.6
20260505023541 43 198 3.0 9.0 0.00 0.00 0.00 67 1014.6
20260505023033 43 197 3.0 8.0 0.00 0.00 0.00 67 1014.8
20260505021541 43 145 2.0 5.0 0.00 0.00 0.00 67 1014.5
20260505020540 43 152 3.0 9.0 0.00 0.00 0.00 67 1014.5
20260505015541 43 163 3.0 9.0 0.00 0.00 0.00 67 1014.6
20260505014540 43 171 3.0 7.0 0.00 0.00 0.00 67 1014.9
20260505014022 43 156 3.0 9.0 0.00 0.00 0.00 67 1014.4
20260505012535 44 228 5.0 13.0 0.00 0.00 0.00 66 1014.5
20260505011536 46 102 5.0 13.0 0.00 0.00 0.00 61 1014.5
20260505011020 48 192 4.0 10.0 0.00 0.00 0.00 56 1014.1
20260505005535 49 166 3.0 8.0 0.00 0.00 0.00 54 1014.0
20260505004534 49 210 1.0 7.0 0.00 0.00 0.00 57 1014.3
20260505003534 48 175 0.0 3.0 0.00 0.00 0.00 62 1013.9
20260505002534 48 241 0.0 3.0 0.00 0.00 0.00 63 1014.0
20260505001532 48 276 1.0 3.0 0.00 0.00 0.00 62 1013.9
20260505000534 50 142 1.0 5.0 0.00 0.00 0.00 59 1014.1
20260504235533 52 168 2.0 10.0 0.00 0.00 0.00 53 1014.5
20260504234532 53 172 2.0 5.0 0.00 0.00 0.00 44 1013.9
20260504234022 54 270 2.0 9.0 0.00 0.00 0.00 42 1013.5
20260504232533 55 134 2.0 7.0 0.00 0.00 0.00 39 1013.4
20260504231532 57 192 2.0 8.0 0.00 0.00 0.00 37 1013.1
20260504231015 57 166 2.0 9.0 0.00 0.00 0.00 38 1013.1
20260504225532 57 325 3.0 8.0 0.00 0.00 0.00 41 1013.1
20260504224531 56 354 2.0 8.0 0.00 0.00 0.00 41 1013.4
20260504223530 55 39 1.0 5.0 0.00 0.00 0.00 42 1013.5
20260504222530 54 107 3.0 7.0 0.00 0.00 0.00 42 1013.5
20260504221530 55 178 1.0 4.0 0.00 0.00 0.00 40 1013.6
20260504220530 56 173 2.0 5.0 0.00 0.00 0.00 38 1013.5
20260504215530 58 232 3.0 11.0 0.00 0.00 0.00 37 1013.9
20260504214530 59 22 3.0 11.0 0.00 0.00 0.00 35 1013.6
20260504213530 61 145 2.0 8.0 0.00 0.00 0.00 29 1013.5
20260504212530 60 210 3.0 9.0 0.00 0.00 0.00 31 1013.4
20260504211530 61 186 2.0 8.0 0.00 0.00 0.00 29 1013.4
20260504210530 61 255 4.0 11.0 0.00 0.00 0.00 30 1013.7
20260504205531 62 332 3.0 17.0 0.00 0.00 0.00 29 1013.7
20260504204530 62 199 3.0 10.0 0.00 0.00 0.00 30 1014.0
20260504203530 61 154 4.0 13.0 0.00 0.00 0.00 29 1014.0
20260504202530 63 125 3.0 8.0 0.00 0.00 0.00 29 1014.1
20260504201530 61 322 3.0 9.0 0.00 0.00 0.00 32 1014.3
20260504200530 59 214 3.0 8.0 0.00 0.00 0.00 33 1014.1
20260504195530 58 152 3.0 11.0 0.00 0.00 0.00 32 1014.4
20260504194530 58 239 3.0 7.0 0.00 0.00 0.00 32 1014.6
20260504194450 57 252 2.0 7.0 0.00 0.00 0.00 34 1015.2
20260504192530 58 258 3.0 10.0 0.00 0.00 0.00 34 1015.6
20260504191530 60 281 3.0 12.0 0.00 0.00 0.00 27 1015.0
20260504190529 60 258 3.0 9.0 0.00 0.00 0.00 28 1014.9
20260504185530 60 91 3.0 9.0 0.00 0.00 0.00 24 1014.9
20260504184529 61 30 2.0 6.0 0.00 0.00 0.00 28 1014.8
20260504184505 60 221 6.0 15.0 0.00 0.00 0.00 29 1014.8
20260504182530 60 94 4.0 14.0 0.00 0.00 0.00 27 1014.8
20260504181532 60 119 2.0 8.0 0.00 0.00 0.00 26 1015.2
20260504180530 59 192 2.0 3.0 0.00 0.00 0.00 28 1015.7
20260504175529 60 139 3.0 7.0 0.00 0.00 0.00 28 1015.6
20260504174528 60 95 3.0 12.0 0.00 0.00 0.00 27 1015.7
20260504173528 59 108 3.0 9.0 0.00 0.00 0.00 30 1015.8
20260504172527 60 137 3.0 10.0 0.00 0.00 0.00 31 1016.2
20260504171528 59 103 4.0 12.0 0.00 0.00 0.00 33 1016.1
20260504170530 59 282 3.0 10.0 0.00 0.00 0.00 35 1016.2
20260504150519 55 231 3.0 14.0 0.00 0.00 0.00 39 1016.5
20260504140517 47 354 0.0 2.0 0.00 0.00 0.00 50 1015.9
20260504130515 42 348 1.0 4.0 0.00 0.00 0.00 58 1016.1